Weather History for KHKY - December, 2013

Change the Weather History Date:

Sunday, December 15, 2013

  Actual Average Record
Temperature  
Mean Temperature 40 °F -  
Max Temperature 48 °F 50 °F 73 °F (1984)
Min Temperature 32 °F 32 °F 12 °F (1962)
Degree Days  
Heating Degree Days 25    
Moisture  
Dew Point 32 °F    
Average Humidity 79    
Maximum Humidity 100    
Minimum Humidity 42    
Precipitation  
Precipitation 0.00 in - - ()
Sea Level Pressure  
Sea Level Pressure 29.85 in    
Wind  
Wind Speed 3 mph (NW)    
Max Wind Speed 13 mph    
Max Gust Speed 21 mph    
Visibility 5 miles    
Events      
Averages and records for this station are not official NWS values.
T = Trace of Precipitation, MM = Missing Value Source: NWS Daily Summary

Daily Weather History Graph

Daily Weather History Graph

Search for Another Location

Airport or City:

Trip Planner

Search our weather history database for the weather conditions in past years. The results will help you decide how hot, cold, wet, or windy it might be!

Date:

Astronomy

Dec. 15, 2013 Rise Set
Actual Time 7:28 AM EST 5:13 PM EST
Civil Twilight 6:59 AM EST 5:41 PM EST
Nautical Twilight 6:27 AM EST 6:13 PM EST
Astronomical Twilight 5:56 AM EST 6:44 PM EST
Moon 4:14 PM EST (12/15) 5:45 AM EST (12/15)
Length of Visible Light 10h 42m
Length of Day
9h 45m
Waxing Gibbous, 97% of the Moon is Illuminated
Dec 15
Waxing Gibbous
Dec 17
Full
Dec 25
Last Quarter
Jan 1
New
Jan 7
First Quarter

Hourly Weather History & Observations

Time (EST) Temp. Windchill Dew Point Humidity Pressure Visibility Wind Dir Wind Speed Gust Speed Precip Events Conditions
12:17 AM 37.4 °F - 37.4 °F 100% 29.77 in 1.0 mi Calm Calm - N/A   Overcast
12:30 AM 37.4 °F - 37.4 °F 100% 29.76 in 0.8 mi Calm Calm - N/A   Unknown
12:53 AM 37.9 °F 35.5 °F 37.0 °F 97% 29.75 in 0.2 mi SSW 3.5 mph - N/A   Unknown
1:02 AM 37.4 °F 32.8 °F 37.4 °F 100% 29.79 in 0.5 mi WSW 5.8 mph - N/A   Unknown
1:53 AM 37.9 °F - 37.0 °F 97% 29.75 in 0.5 mi Calm Calm - N/A   Unknown
2:17 AM 37.4 °F - 37.4 °F 100% 29.73 in 0.2 mi Calm Calm - N/A   Unknown
2:25 AM 37.4 °F 32.8 °F 37.4 °F 100% 29.77 in 1.0 mi West 5.8 mph - N/A   Unknown
2:32 AM 37.4 °F - 37.4 °F 100% 29.72 in 3.0 mi Calm Calm - N/A   Overcast
2:41 AM 37.4 °F - 37.4 °F 100% 29.75 in 2.5 mi Calm Calm - N/A   Overcast
2:53 AM 37.9 °F - 37.0 °F 97% 29.73 in 1.8 mi Calm Calm - N/A   Overcast
3:53 AM 37.9 °F - 37.9 °F 100% 29.72 in 1.2 mi Calm Calm - N/A   Overcast
4:16 AM 39.2 °F - 37.4 °F 93% 29.74 in 0.5 mi Calm Calm - N/A   Unknown
4:53 AM 39.0 °F - 37.0 °F 93% 29.73 in 0.5 mi Calm Calm - N/A   Unknown
5:05 AM 39.2 °F - 37.4 °F 93% 29.75 in 0.2 mi Calm Calm - N/A   Unknown
5:27 AM 39.2 °F 37.0 °F 37.4 °F 93% 29.75 in 0.2 mi WSW 3.5 mph - N/A   Unknown
5:53 AM 37.9 °F 35.5 °F 37.0 °F 97% 29.75 in 0.2 mi West 3.5 mph - N/A   Unknown
6:53 AM 37.9 °F - 36.0 °F 93% 29.78 in 0.2 mi Calm Calm - N/A   Unknown
7:04 AM 37.4 °F 32.8 °F 35.6 °F 93% 29.79 in 1.0 mi WNW 5.8 mph - N/A   Unknown
7:08 AM 37.4 °F 32.8 °F 35.6 °F 93% 29.80 in 4.0 mi NW 5.8 mph - N/A   Mostly Cloudy
7:18 AM 37.4 °F 32.1 °F 35.6 °F 93% 29.80 in 9.0 mi WNW 6.9 mph - N/A   Scattered Clouds
7:53 AM 37.0 °F 32.4 °F 35.1 °F 93% 29.82 in 10.0 mi NW 5.8 mph - N/A   Clear
8:53 AM 43.0 °F 37.7 °F 33.1 °F 68% 29.85 in 10.0 mi NNW 9.2 mph - N/A   Clear
9:53 AM 45.0 °F 40.6 °F 32.0 °F 60% 29.88 in 10.0 mi NNW 8.1 mph 19.6 mph N/A   Clear
10:53 AM 46.9 °F - 33.1 °F 59% 29.91 in 10.0 mi NW 8.1 mph - N/A   Clear
11:53 AM 48.0 °F - 30.9 °F 52% 29.90 in 10.0 mi North 8.1 mph - N/A   Partly Cloudy
12:53 PM 48.9 °F - 28.0 °F 44% 29.89 in 10.0 mi WNW 12.7 mph 20.7 mph N/A   Clear
1:53 PM 48.0 °F - 27.0 °F 44% 29.89 in 10.0 mi NNW 10.4 mph - N/A   Clear
2:53 PM 48.0 °F - 26.1 °F 42% 29.91 in 10.0 mi NNW 8.1 mph - N/A   Clear
3:53 PM 45.0 °F 39.3 °F 24.1 °F 44% 29.95 in 10.0 mi NW 11.5 mph 18.4 mph N/A   Partly Cloudy
4:53 PM 42.1 °F 37.7 °F 25.0 °F 51% 29.98 in 10.0 mi NW 6.9 mph - N/A   Clear
5:53 PM 39.0 °F 34.0 °F 23.0 °F 53% 30.00 in 10.0 mi NW 6.9 mph - N/A   Clear
6:53 PM 37.9 °F 32.7 °F 23.0 °F 55% 30.02 in 10.0 mi WNW 6.9 mph - N/A   Clear
7:53 PM 34.0 °F - 24.1 °F 67% 30.04 in 10.0 mi Calm Calm - N/A   Clear
8:53 PM 35.1 °F - 23.0 °F 61% 30.05 in 10.0 mi Calm Calm - N/A   Clear
9:53 PM 34.0 °F 29.8 °F 23.0 °F 64% 30.06 in 10.0 mi NW 4.6 mph - N/A   Clear
10:53 PM 32.0 °F - 24.1 °F 73% 30.06 in 10.0 mi Calm Calm - N/A   Clear
11:53 PM 32.0 °F 27.5 °F 24.1 °F 73% 30.07 in 10.0 mi WNW 4.6 mph - N/A   Clear